Wind_Speed
12 12 12 12 12 12 12 13 13 13 14 14 15 15 16 16 16 16 16 16 16 16 16 16 16 16 16 16 16 16 17 17 18 18 18 19 19 19
13 13 14 14 14 14 15 15 15 15 16 16 17 17 17 18 18 18 17 17 17 17 18 18 18 18 18 18 18 18 18 18 19 19 19 20 21 20
15 15 16 16 17 17 17 18 18 18 18 19 19 20 20 20 20 20 20 20 20 19 20 20 20 20 20 20 20 20 20 20 20 20 21 21 22 22
16 17 17 17 18 19 19 19 20 21 21 20 21 22 22 22 22 22 22 22 22 22 22 22 22 22 22 21 22 22 22 22 22 22 23 23 23 24
18 19 19 19 20 21 21 21 22 22 22 23 23 23 24 24 24 24 24 24 24 25 25 24 24 24 24 24 24 24 24 25 25 24 24 24 25 26
20 21 21 21 22 23 23 23 24 24 24 25 25 25 25 25 26 25 25 26 26 26 27 27 26 26 26 26 26 26 26 26 26 26 26 26 26 27
23 23 23 23 24 24 25 26 26 26 26 26 26 26 26 26 27 26 26 26 26 27 27 27 27 28 28 28 28 28 28 28 28 28 28 28 29 29
24 24 25 25 25 26 27 27 27 27 27 27 27 27 27 27 27 27 27 27 27 27 28 29 29 29 29 30 29 30 30 30 30 30 30 31 31 31
25 25 26 27 27 28 28 28 29 29 29 29 29 28 28 28 29 29 28 29 29 29 29 29 29 29 30 30 30 30 30 30 30 30 31 31 31 31
27 28 28 29 29 29 29 30 30 30 30 29 29 29 29 29 30 30 30 31 31 31 31 30 30 30 30 31 31 31 31 31 31 31 32 32 32 32
29 29 29 29 29 30 31 31 31 31 30 30 30 30 30 30 30 31 31 32 31 31 32 31 31 31 32 32 32 32 32 33 33 33 32 32 32 32
30 30 31 31 31 32 32 32 32 31 31 31 31 31 31 31 31 31 31 31 32 32 32 32 33 33 33 33 34 34 33 34 34 33 32 31 31 32
32 32 33 34 34 33 33 33 32 32 32 32 32 32 32 32 31 32 32 33 33 33 33 34 35 35 34 34 35 36 35 34 34 34 33 32 32 32
33 33 34 34 34 34 34 33 33 33 33 33 33 33 33 33 33 34 34 35 35 35 35 36 36 37 37 37 37 36 36 35 35 34 33 33 32 33
34 34 34 34 34 34 34 34 34 33 33 33 34 34 34 35 35 35 36 36 37 37 37 38 38 38 38 38 37 36 37 36 36 35 34 33 33 33
35 34 34 35 35 34 34 34 34 34 34 35 35 35 36 36 37 37 37 38 38 38 39 40 40 40 39 39 39 38 38 37 36 35 35 35 35 35
34 35 35 35 35 35 35 35 36 36 37 37 37 38 38 39 39 38 38 39 39 39 40 40 41 40 39 39 39 39 39 38 36 36 36 36 36 36
35 35 36 36 36 37 37 36 37 37 37 37 38 39 40 40 40 40 40 40 39 40 40 41 41 40 40 40 39 38 38 37 36 36 36 36 35 36
36 37 37 37 37 38 37 37 37 38 38 38 39 40 40 40 41 41 41 41 41 41 41 41 40 39 38 38 38 38 38 37 37 37 37 37 36 35
37 37 37 37 37 38 38 38 39 39 39 39 39 39 40 41 41 41 41 42 42 42 41 41 40 39 38 38 38 37 37 37 37 37 37 37 37 36
38 38 37 37 38 37 37 38 38 39 39 39 39 39 39 40 40 41 41 42 42 41 41 40 40 39 39 39 38 37 37 37 37 37 37 37 36 35
38 38 38 38 38 38 38 38 39 39 40 40 40 40 40 40 40 41 41 41 41 41 40 40 39 39 38 39 39 38 37 37 37 37 36 35 35 34
39 39 38 38 39 39 38 39 39 39 39 40 40 40 40 40 40 40 40 41 40 39 39 38 38 39 39 38 38 38 37 37 37 36 35 35 34 33
Wind_Direction
295 297 299 301 301 298 298 300 300 301 304 305 307 309 312 313 314 311 311 309 308 307 308 308 306 303 300 298 297 294 292 290 287 284 282 281 278 273
291 292 294 293 294 293 291 293 295 296 297 298 300 301 304 306 308 309 308 306 306 305 304 303 305 304 301 298 295 294 293 292 290 287 284 283 279 275
289 291 292 293 292 294 292 289 289 291 292 293 295 296 297 299 301 302 303 302 301 301 301 300 299 299 298 296 295 294 293 291 290 288 286 286 282 278
288 291 292 292 293 293 293 292 289 289 291 292 293 294 295 295 295 297 298 299 299 299 298 298 296 295 294 293 293 292 291 290 289 289 287 286 285 282
286 289 289 290 291 292 293 293 292 291 291 292 292 293 294 295 295 296 298 299 298 297 297 296 295 292 291 290 290 290 289 289 288 288 286 285 284 282
288 288 288 288 289 290 291 291 291 291 291 291 290 291 291 292 294 294 296 297 297 297 296 296 295 293 291 291 290 290 290 289 288 286 286 286 285 282
287 287 288 290 290 290 290 290 291 291 291 291 291 291 291 291 292 292 293 294 296 296 295 294 294 293 292 290 290 290 290 289 288 286 286 287 285 283
289 287 287 288 290 291 292 291 292 291 291 289 289 290 291 291 291 290 291 292 295 295 295 295 295 294 293 292 291 290 289 288 286 286 286 286 285 283
289 289 289 289 290 291 291 292 291 290 290 288 287 290 289 289 289 289 290 291 292 294 295 296 296 295 294 293 293 291 290 288 288 288 288 287 286 284
290 289 290 290 290 291 292 294 293 291 290 288 288 289 290 290 290 291 291 292 292 293 294 294 294 295 295 294 292 291 291 290 290 290 289 287 287 287
291 290 291 291 292 292 293 294 294 292 290 288 289 290 289 291 291 291 292 292 293 294 292 292 292 294 295 294 293 291 290 290 290 290 290 288 287 285
292 291 291 291 291 293 293 293 293 291 289 288 288 289 289 289 290 290 292 293 293 293 292 292 294 293 292 292 293 292 290 290 290 289 288 287 286 285
292 290 290 290 292 292 292 292 291 289 288 288 287 288 288 289 290 290 291 292 293 292 291 291 292 292 293 292 292 292 291 289 288 287 286 287 286 286
293 293 293 292 292 292 291 290 289 288 288 288 288 288 288 289 291 291 292 292 292 291 290 291 290 290 291 290 291 290 289 288 288 288 286 286 286 285
294 294 294 293 292 292 291 291 291 290 289 288 288 287 288 289 290 290 290 290 290 290 290 289 289 290 290 291 290 289 288 288 288 287 286 286 286 285
294 294 293 292 292 293 292 293 292 290 289 288 288 287 287 289 290 289 289 289 289 290 290 290 290 290 290 290 290 289 287 287 286 286 286 285 284 285
294 294 294 294 293 292 292 292 291 289 289 288 289 289 289 289 289 290 291 290 290 290 291 291 290 290 290 290 290 289 287 285 284 286 286 285 284 285
293 293 294 293 292 292 291 291 290 290 290 289 289 289 289 289 289 290 290 291 291 291 291 291 291 291 290 290 291 289 286 284 284 285 284 284 283 284
293 293 293 293 293 293 293 292 291 291 290 290 290 289 289 288 288 289 289 289 291 291 291 291 291 292 292 292 291 290 287 285 284 284 283 283 282 283
292 293 293 293 293 293 293 292 291 290 290 291 291 290 289 289 289 288 288 289 289 290 290 290 290 291 291 291 291 290 289 287 285 284 283 283 283 282
292 293 293 293 293 293 293 292 291 290 291 291 291 291 290 290 290 289 289 289 288 288 289 290 290 290 290 290 291 290 288 286 286 287 286 284 283 282
292 293 293 293 293 292 293 293 292 292 292 291 291 291 291 290 291 290 290 289 288 288 288 288 289 289 289 289 289 289 288 287 287 287 285 283 283 283
293 292 292 292 292 292 292 292 293 293 293 292 292 291 291 291 291 291 290 290 289 287 286 287 287 288 288 288 289 288 287 286 285 285 284 284 284 283
Height
5890 5889 5888 5886 5885 5884 5882 5881 5880 5878 5877 5875 5873 5871 5869 5867 5865 5863 5861 5859 5857 5855 5853 5851 5850 5848 5847 5845 5844 5842 5841 5841 5840 5839 5838 5837 5836 5835
5886 5885 5884 5883 5881 5880 5879 5878 5876 5875 5873 5872 5870 5868 5866 5864 5862 5859 5857 5855 5853 5851 5849 5847 5846 5844 5842 5841 5840 5838 5837 5836 5835 5834 5833 5832 5831 5830
5883 5882 5880 5879 5878 5876 5875 5873 5872 5870 5869 5868 5866 5863 5861 5859 5857 5855 5853 5850 5849 5847 5845 5843 5841 5839 5837 5836 5835 5833 5832 5830 5829 5828 5827 5826 5825 5824
5879 5878 5876 5875 5873 5872 5870 5868 5867 5865 5864 5863 5861 5858 5856 5854 5852 5850 5847 5845 5843 5841 5839 5837 5835 5834 5832 5830 5829 5827 5826 5824 5823 5822 5821 5820 5819 5818
5874 5873 5871 5870 5868 5867 5865 5863 5861 5860 5858 5857 5855 5853 5850 5848 5846 5844 5842 5839 5837 5835 5833 5831 5829 5827 5825 5824 5822 5821 5819 5818 5816 5815 5814 5812 5811 5811
5869 5868 5866 5865 5863 5861 5859 5857 5855 5854 5852 5850 5848 5846 5844 5842 5840 5838 5836 5833 5831 5828 5826 5824 5822 5820 5818 5817 5815 5814 5812 5810 5809 5807 5806 5805 5804 5802
5863 5862 5860 5859 5857 5855 5853 5851 5849 5847 5845 5843 5841 5839 5837 5835 5833 5831 5828 5826 5824 5821 5819 5817 5815 5813 5811 5809 5807 5806 5804 5802 5801 5799 5798 5796 5795 5793
5857 5855 5854 5852 5850 5849 5846 5844 5842 5840 5838 5836 5834 5832 5830 5827 5825 5823 5821 5819 5817 5815 5812 5809 5807 5805 5803 5801 5799 5797 5795 5793 5792 5790 5789 5787 5785 5784
5851 5849 5847 5845 5843 5841 5839 5837 5835 5832 5830 5828 5826 5824 5822 5820 5817 5815 5813 5810 5808 5806 5804 5801 5799 5796 5794 5792 5791 5789 5787 5785 5783 5781 5779 5778 5776 5774
5844 5842 5840 5838 5835 5833 5831 5829 5826 5824 5821 5819 5817 5815 5813 5811 5809 5807 5804 5802 5799 5797 5795 5792 5790 5788 5786 5784 5782 5780 5778 5776 5774 5772 5769 5767 5765 5763
5836 5834 5832 5830 5827 5824 5822 5820 5817 5814 5812 5810 5808 5806 5804 5802 5800 5798 5795 5793 5791 5788 5786 5784 5781 5779 5777 5775 5772 5770 5768 5766 5764 5762 5759 5757 5755 5752
5828 5826 5824 5821 5819 5816 5813 5811 5808 5806 5803 5801 5799 5797 5795 5793 5791 5789 5786 5784 5781 5780 5777 5775 5772 5770 5768 5765 5762 5760 5758 5756 5753 5751 5749 5747 5745 5742
5819 5817 5815 5812 5810 5807 5804 5802 5799 5797 5795 5792 5790 5788 5786 5784 5782 5779 5777 5775 5772 5770 5768 5765 5763 5760 5757 5755 5752 5750 5747 5745 5743 5741 5739 5737 5735 5732
5811 5808 5805 5803 5800 5797 5795 5792 5790 5787 5785 5783 5781 5778 5776 5774 5772 5770 5767 5765 5763 5760 5757 5755 5752 5749 5747 5744 5742 5739 5737 5735 5732 5730 5728 5727 5725 5722
5801 5798 5796 5793 5790 5787 5785 5782 5779 5777 5775 5773 5771 5768 5766 5764 5761 5759 5757 5754 5752 5749 5746 5744 5741 5738 5735 5733 5730 5728 5726 5724 5721 5719 5717 5716 5714 5712
5791 5788 5786 5783 5780 5777 5775 5772 5769 5767 5765 5763 5760 5758 5756 5753 5751 5748 5746 5743 5740 5738 5735 5732 5729 5726 5724 5721 5719 5717 5714 5712 5710 5708 5707 5705 5703 5701
5781 5778 5776 5773 5770 5767 5765 5762 5759 5757 5754 5752 5750 5747 5745 5742 5739 5737 5734 5731 5729 5726 5723 5721 5717 5714 5712 5710 5707 5705 5703 5700 5698 5697 5695 5693 5692 5689
5771 5768 5765 5763 5760 5757 5754 5751 5748 5746 5743 5741 5738 5735 5733 5730 5728 5725 5722 5720 5717 5714 5711 5708 5705 5702 5700 5697 5696 5693 5690 5689 5687 5685 5683 5681 5680 5678
5761 5758 5755 5752 5749 5746 5743 5740 5737 5734 5732 5729 5726 5723 5721 5718 5715 5713 5710 5707 5705 5702 5699 5696 5693 5690 5688 5686 5683 5681 5679 5677 5675 5673 5671 5669 5668 5666
5750 5747 5744 5741 5738 5735 5732 5729 5726 5723 5720 5717 5714 5711 5708 5706 5703 5700 5698 5695 5692 5689 5687 5684 5681 5679 5676 5674 5671 5669 5666 5664 5662 5661 5659 5657 5655 5654
5739 5736 5733 5730 5727 5724 5721 5718 5715 5711 5708 5705 5702 5699 5696 5693 5690 5687 5685 5682 5679 5677 5674 5672 5669 5666 5664 5661 5659 5657 5655 5653 5651 5648 5646 5644 5643 5641
5728 5725 5722 5718 5715 5712 5709 5706 5703 5700 5696 5693 5690 5687 5684 5680 5677 5675 5672 5669 5666 5664 5662 5659 5657 5654 5652 5650 5647 5645 5643 5641 5639 5636 5634 5633 5630 5629
5715 5713 5710 5706 5703 5700 5697 5694 5691 5687 5684 5681 5678 5675 5671 5668 5665 5662 5659 5656 5653 5650 5649 5647 5644 5642 5640 5637 5635 5632 5630 5628 5626 5624 5623 5621 5619 5618